Home > Weather > Annapolis > Past weeks

Flag for U.S.A. Weather for the Past 2 Weeks in Annapolis, Maryland, U.S.A.

Now
29 °F

Light snow. Ice fog.


Feels Like: 20 °F
Forecast: 28 / 36 °F
Wind: 9 mph from West

Location: Annapolis - United States Naval Academy

Current Time: Feb 10, 2016 at 4:41:05 AM

Latest Report: Feb 10, 2016 at 4:03 AM


Visibility: 3 mi

Pressure: 29.70 "Hg

Humidity: 85%

Dew point: 25 °F

Location of AnnapolisLocation

Historic Weather in Annapolis — Graph

°F

Annapolis Temperature Yesterday

Maximum temperature yesterday: 38 °F (at 3:54 PM)
Minimum temperature yesterday: 33 °F (at 10:54 PM)
Average temperature yesterday: 36 °F

High & Low Weather Summary for the Past Weeks

 TemperatureHumidityPressure
High58 °F (Feb 1, 9:54 AM)100% (Feb 1, 5:54 PM)30.47 "Hg (Feb 1, 5:54 PM)
Low24 °F (Jan 28, 6:54 AM)40% (Jan 26, 1:54 PM)29.54 "Hg (Jan 29, 4:54 AM)
Average40 °F72%30.00 "Hg
* Reported Jan 26 2:54 AM — Feb 10 2:54 AM, Annapolis, Weather by CustomWeather, © 2016

Note: Actual official high and low records may vary slightly from our data, if they occured in-between our weather recording intervals... More about our weather records

Advertising

Annapolis Weather History for the Previous 24 Hours

 ConditionsComfort  
Time TempWeatherWind HumidityBarometerVisibility
2:54 AM
Wed, Feb 10
31 °FOvercast.12 mph73%29.69 "Hg9 mi
1:54 AM31 °FOvercast.9 mph69%29.68 "Hg10 mi
12:54 AM32 °FOvercast.13 mph66%29.68 "Hg10 mi
11:54 PM
Tue, Feb 9
33 °FMostly cloudy.8 mph66%29.68 "Hg10 mi
10:54 PM33 °FOvercast.7 mph72%29.68 "Hg10 mi
9:54 PM34 °FOvercast.8 mph70%29.67 "Hg10 mi
8:54 PM34 °FOvercast.9 mph76%29.67 "Hg10 mi
7:54 PM35 °FClear.9 mph75%29.64 "Hg10 mi
6:54 PM36 °FOvercast.8 mph75%29.64 "Hg10 mi
5:54 PM36 °FPassing clouds.7 mph79%29.62 "Hg10 mi
4:54 PM38 °FPartly sunny.8 mph76%29.59 "Hg10 mi
3:54 PM38 °FCloudy.10 mph83%29.57 "Hg10 mi
2:54 PM37 °FMostly cloudy.5 mph93%29.55 "Hg10 mi
1:54 PM36 °FLight rain. Fog.5 mph92%29.54 "Hg4 mi
12:54 PM36 °FLight rain. Fog.No wind97%29.55 "Hg3 mi
11:54 AM36 °FLight rain. Fog.No wind92%29.57 "Hg3 mi
10:54 AM36 °FFog.3 mph92%29.58 "Hg6 mi
10:01 AM35 °FLight rain. Fog.3 mph96%29.59 "Hg5 mi
8:54 AM36 °FLight rain. Fog.No wind92%29.60 "Hg3 mi
7:54 AM36 °FLight rain. Fog.8 mph92%29.59 "Hg5 mi
6:54 AM37 °FLight rain. Overcast.6 mph93%29.59 "Hg7 mi
5:54 AM36 °FLight rain. Fog.8 mph97%29.58 "Hg5 mi
4:54 AM37 °FOvercast.7 mph93%29.59 "Hg9 mi
Weather by CustomWeather, © 2016

See weather overviewHow to use our weather pages